| time (UTC) | temp C | wind direction | speed KPH | gust KPH | rain 1hr cm | rain 24hr cm | rain mn cm | humidity % | barometer mb |
| 20260505023403 | 21 | 205 | 0.0 | 0.0 | 0.00 | 0.00 | 0.00 | 56 | 1008.6 |
| 20260505022903 | 21 | 205 | 0.0 | 0.0 | 0.00 | 0.00 | 0.00 | 55 | 1008.5 |
| 20260505022402 | 21 | 205 | 0.0 | 0.0 | 0.00 | 0.00 | 0.00 | 53 | 1008.5 |
| 20260505021402 | 22 | 124 | 0.0 | 0.0 | 0.00 | 0.00 | 0.00 | 50 | 1008.6 |
| 20260505020402 | 22 | 122 | 0.0 | 1.6 | 0.00 | 0.00 | 0.00 | 48 | 1008.4 |
| 20260505015903 | 22 | 121 | 0.0 | 3.2 | 0.00 | 0.00 | 0.00 | 48 | 1008.4 |
| 20260505015403 | 23 | 67 | 1.6 | 1.6 | 0.00 | 0.00 | 0.00 | 48 | 1008.4 |
| 20260505014903 | 23 | 45 | 0.0 | 4.8 | 0.00 | 0.00 | 0.00 | 47 | 1008.4 |
| 20260505014403 | 24 | 100 | 0.0 | 0.0 | 0.00 | 0.00 | 0.00 | 47 | 1008.3 |
| 20260505013902 | 24 | 100 | 0.0 | 0.0 | 0.00 | 0.00 | 0.00 | 46 | 1008.3 |
| 20260505013403 | 25 | 84 | 0.0 | 0.0 | 0.00 | 0.00 | 0.00 | 44 | 1008.3 |
| 20260505012903 | 25 | 86 | 0.0 | 0.0 | 0.00 | 0.00 | 0.00 | 45 | 1008.3 |
| 20260505012403 | 25 | 86 | 0.0 | 0.0 | 0.00 | 0.00 | 0.00 | 44 | 1008.3 |
| 20260505011903 | 26 | 258 | 0.0 | 0.0 | 0.00 | 0.00 | 0.00 | 41 | 1008.3 |
| 20260505011404 | 26 | 342 | 0.0 | 3.2 | 0.00 | 0.00 | 0.00 | 40 | 1008.3 |
| 20260505010903 | 27 | 114 | 0.0 | 3.2 | 0.00 | 0.00 | 0.00 | 38 | 1008.3 |
| 20260505010403 | 27 | 248 | 1.6 | 4.8 | 0.00 | 0.00 | 0.00 | 40 | 1008.3 |
| 20260505005904 | 28 | 108 | 1.6 | 4.8 | 0.00 | 0.00 | 0.00 | 39 | 1008.4 |
| 20260505005403 | 27 | 104 | 0.0 | 3.2 | 0.00 | 0.00 | 0.00 | 41 | 1008.4 |
| 20260505004904 | 28 | 205 | 0.0 | 0.0 | 0.00 | 0.00 | 0.00 | 38 | 1008.3 |
| 20260505004403 | 27 | 205 | 0.0 | 3.2 | 0.00 | 0.00 | 0.00 | 39 | 1008.3 |
| 20260505003903 | 27 | 6 | 0.0 | 1.6 | 0.00 | 0.00 | 0.00 | 39 | 1008.4 |
| 20260505003402 | 27 | 89 | 0.0 | 0.0 | 0.00 | 0.00 | 0.00 | 40 | 1008.4 |
| 20260505002903 | 27 | 91 | 0.0 | 1.6 | 0.00 | 0.00 | 0.00 | 40 | 1008.3 |
| 20260505002402 | 27 | 13 | 1.6 | 4.8 | 0.00 | 0.00 | 0.00 | 38 | 1008.3 |
| 20260505001903 | 27 | 346 | 0.0 | 1.6 | 0.00 | 0.00 | 0.00 | 38 | 1008.4 |
| 20260505001403 | 27 | 334 | 1.6 | 4.8 | 0.00 | 0.00 | 0.00 | 37 | 1008.4 |
| 20260505000405 | 28 | 18 | 0.0 | 1.6 | 0.00 | 0.00 | 0.00 | 37 | 1008.4 |
| 20260504235403 | 28 | 87 | 0.0 | 4.8 | 0.00 | 0.00 | 0.00 | 40 | 1008.4 |
| 20260504234903 | 28 | 256 | 0.0 | 3.2 | 0.00 | 0.00 | 0.00 | 38 | 1008.4 |
| 20260504233403 | 28 | 191 | 0.0 | 3.2 | 0.00 | 0.00 | 0.00 | 38 | 1008.5 |
| 20260504232903 | 28 | 4 | 1.6 | 3.2 | 0.00 | 0.00 | 0.00 | 35 | 1008.5 |
| 20260504232404 | 28 | 288 | 0.0 | 1.6 | 0.00 | 0.00 | 0.00 | 40 | 1008.6 |
| 20260504231903 | 28 | 267 | 0.0 | 3.2 | 0.00 | 0.00 | 0.00 | 37 | 1008.5 |
| 20260504230903 | 28 | 193 | 1.6 | 3.2 | 0.00 | 0.00 | 0.00 | 35 | 1008.6 |
| 20260504230403 | 28 | 294 | 1.6 | 4.8 | 0.00 | 0.00 | 0.00 | 34 | 1008.6 |
| 20260504225904 | 28 | 310 | 1.6 | 1.6 | 0.00 | 0.00 | 0.00 | 36 | 1008.6 |
| 20260504225403 | 28 | 239 | 0.0 | 4.8 | 0.00 | 0.00 | 0.00 | 38 | 1008.6 |
| 20260504224903 | 28 | 103 | 1.6 | 3.2 | 0.00 | 0.00 | 0.00 | 35 | 1008.7 |
| 20260504224403 | 28 | 288 | 0.0 | 1.6 | 0.00 | 0.00 | 0.00 | 36 | 1008.7 |
| 20260504223403 | 27 | 279 | 1.6 | 4.8 | 0.00 | 0.00 | 0.00 | 37 | 1008.7 |
| 20260504222903 | 27 | 84 | 1.6 | 4.8 | 0.00 | 0.00 | 0.00 | 37 | 1008.8 |
| 20260504222403 | 27 | 94 | 0.0 | 4.8 | 0.00 | 0.00 | 0.00 | 39 | 1008.8 |
| 20260504221403 | 27 | 252 | 1.6 | 4.8 | 0.00 | 0.00 | 0.00 | 36 | 1008.9 |
| 20260504220903 | 28 | 160 | 1.6 | 3.2 | 0.00 | 0.00 | 0.00 | 36 | 1009.0 |
| 20260504220403 | 28 | 245 | 1.6 | 4.8 | 0.00 | 0.00 | 0.00 | 37 | 1009.0 |
| 20260504215903 | 27 | 200 | 0.0 | 1.6 | 0.00 | 0.00 | 0.00 | 34 | 1009.2 |
| 20260504215403 | 27 | 179 | 1.6 | 8.0 | 0.00 | 0.00 | 0.00 | 35 | 1009.2 |
| 20260504214403 | 27 | 318 | 0.0 | 0.0 | 0.00 | 0.00 | 0.00 | 37 | 1009.3 |
| 20260504213904 | 27 | 340 | 1.6 | 4.8 | 0.00 | 0.00 | 0.00 | 36 | 1009.3 |
| 20260504213403 | 27 | 301 | 0.0 | 1.6 | 0.00 | 0.00 | 0.00 | 38 | 1009.4 |
| 20260504212904 | 27 | 279 | 1.6 | 1.6 | 0.00 | 0.00 | 0.00 | 36 | 1009.4 |
| 20260504212403 | 27 | 266 | 1.6 | 3.2 | 0.00 | 0.00 | 0.00 | 38 | 1009.4 |
| 20260504211903 | 27 | 279 | 1.6 | 3.2 | 0.00 | 0.00 | 0.00 | 38 | 1009.5 |
| 20260504211403 | 27 | 276 | 1.6 | 3.2 | 0.00 | 0.00 | 0.00 | 39 | 1009.5 |
| 20260504210903 | 27 | 50 | 1.6 | 4.8 | 0.00 | 0.00 | 0.00 | 41 | 1009.5 |
| 20260504210404 | 27 | 282 | 1.6 | 4.8 | 0.00 | 0.00 | 0.00 | 41 | 1009.6 |
| 20260504205903 | 27 | 83 | 1.6 | 4.8 | 0.00 | 0.00 | 0.00 | 39 | 1009.7 |
| 20260504205403 | 27 | 258 | 0.0 | 0.0 | 0.00 | 0.00 | 0.00 | 37 | 1009.6 |
| 20260504204903 | 27 | 310 | 0.0 | 3.2 | 0.00 | 0.00 | 0.00 | 39 | 1009.7 |
| 20260504202403 | 26 | 285 | 1.6 | 3.2 | 0.00 | 0.00 | 0.00 | 42 | 1009.8 |
| 20260504201903 | 26 | 354 | 1.6 | 3.2 | 0.00 | 0.00 | 0.00 | 42 | 1009.7 |
| 20260504201403 | 26 | 10 | 1.6 | 3.2 | 0.00 | 0.00 | 0.00 | 42 | 1009.8 |
| 20260504200904 | 26 | 312 | 0.0 | 3.2 | 0.00 | 0.00 | 0.00 | 42 | 1009.9 |
| 20260504200404 | 26 | 313 | 1.6 | 4.8 | 0.00 | 0.00 | 0.00 | 43 | 1010.0 |
| 20260504195903 | 26 | 174 | 1.6 | 4.8 | 0.00 | 0.00 | 0.00 | 40 | 1010.0 |
| 20260504195403 | 25 | 299 | 1.6 | 4.8 | 0.00 | 0.00 | 0.00 | 43 | 1010.0 |
| 20260504194903 | 26 | 164 | 3.2 | 4.8 | 0.00 | 0.00 | 0.00 | 41 | 1009.9 |
| 20260504193403 | 26 | 236 | 1.6 | 3.2 | 0.00 | 0.00 | 0.00 | 44 | 1009.8 |
| 20260504192904 | 26 | 17 | 1.6 | 3.2 | 0.00 | 0.00 | 0.00 | 47 | 1009.8 |
| 20260504192403 | 26 | 274 | 0.0 | 0.0 | 0.00 | 0.00 | 0.00 | 46 | 1009.8 |
| 20260504191903 | 26 | 249 | 0.0 | 3.2 | 0.00 | 0.00 | 0.00 | 43 | 1009.8 |
| 20260504191403 | 26 | 122 | 0.0 | 0.0 | 0.00 | 0.00 | 0.00 | 45 | 1009.9 |
| 20260504190904 | 26 | 172 | 0.0 | 3.2 | 0.00 | 0.00 | 0.00 | 48 | 1009.9 |
| 20260504190403 | 26 | 236 | 1.6 | 4.8 | 0.00 | 0.00 | 0.00 | 46 | 1009.9 |
| 20260504185904 | 25 | 107 | 0.0 | 3.2 | 0.00 | 0.00 | 0.00 | 47 | 1009.9 |
| 20260504184903 | 25 | 117 | 1.6 | 4.8 | 0.00 | 0.00 | 0.00 | 46 | 1010.0 |
| 20260504184404 | 25 | 142 | 1.6 | 4.8 | 0.00 | 0.00 | 0.00 | 48 | 1010.0 |
| 20260504183903 | 25 | 177 | 0.0 | 4.8 | 0.00 | 0.00 | 0.00 | 52 | 1010.0 |
| 20260504183404 | 25 | 150 | 1.6 | 3.2 | 0.00 | 0.00 | 0.00 | 47 | 1010.0 |
| 20260504182403 | 24 | 115 | 1.6 | 3.2 | 0.00 | 0.00 | 0.00 | 47 | 1010.1 |
| 20260504181905 | 24 | 153 | 1.6 | 4.8 | 0.00 | 0.00 | 0.00 | 49 | 1010.1 |
| 20260504181404 | 24 | 163 | 1.6 | 4.8 | 0.00 | 0.00 | 0.00 | 48 | 1010.0 |
| 20260504180905 | 23 | 186 | 1.6 | 4.8 | 0.00 | 0.00 | 0.00 | 47 | 1010.1 |
| 20260504175904 | 23 | 201 | 1.6 | 3.2 | 0.00 | 0.00 | 0.00 | 51 | 1010.1 |
| 20260504175405 | 23 | 210 | 3.2 | 4.8 | 0.00 | 0.00 | 0.00 | 48 | 1010.0 |
| 20260504174903 | 23 | 197 | 3.2 | 8.0 | 0.00 | 0.00 | 0.00 | 52 | 1010.0 |
| 20260504174404 | 23 | 140 | 1.6 | 4.8 | 0.00 | 0.00 | 0.00 | 53 | 1010.0 |
| 20260504173403 | 23 | 151 | 0.0 | 3.2 | 0.00 | 0.00 | 0.00 | 52 | 1010.1 |
| 20260504172903 | 22 | 152 | 1.6 | 3.2 | 0.00 | 0.00 | 0.00 | 51 | 1010.1 |
| 20260504171903 | 22 | 155 | 1.6 | 4.8 | 0.00 | 0.00 | 0.00 | 53 | 1010.1 |
| 20260504171403 | 22 | 125 | 1.6 | 4.8 | 0.00 | 0.00 | 0.00 | 51 | 1010.1 |
| 20260504170903 | 22 | 234 | 0.0 | 1.6 | 0.00 | 0.00 | 0.00 | 53 | 1010.1 |
| 20260504170404 | 22 | 246 | 0.0 | 1.6 | 0.00 | 0.00 | 0.00 | 55 | 1010.1 |
| 20260504150904 | 10 | 136 | 0.0 | 0.0 | 0.00 | 0.00 | 0.00 | 3 | 1010.0 |
| 20260504150404 | 10 | 136 | 0.0 | 0.0 | 0.00 | 0.00 | 0.00 | 3 | 1010.0 |
| 20260504140903 | 8 | 136 | 0.0 | 0.0 | 0.00 | 0.00 | 0.00 | 3 | 1009.7 |
| 20260504130403 | 8 | 139 | 0.0 | 0.0 | 0.00 | 0.00 | 0.00 | 3 | 1009.2 |
| 20260504110403 | 8 | 139 | 0.0 | 0.0 | 0.00 | 0.00 | 0.00 | 3 | 1009.1 |
| 20260504081904 | 10 | 139 | 0.0 | 0.0 | 0.00 | 0.00 | 0.00 | 23 | 1009.0 |
| 20260504080903 | 10 | 139 | 0.0 | 0.0 | 0.00 | 0.00 | 0.00 | 24 | 1009.1 |
| 20260504080404 | 11 | 139 | 0.0 | 0.0 | 0.00 | 0.00 | 0.00 | 26 | 1009.0 |
| 20260504070403 | 11 | 139 | 0.0 | 0.0 | 0.00 | 0.00 | 0.00 | 47 | 1009.0 |
| 20260504050403 | 14 | 138 | 0.0 | 0.0 | 0.00 | 0.00 | 0.00 | 73 | 1009.0 |
| 20260504045403 | 15 | 139 | 0.0 | 0.0 | 0.00 | 0.00 | 0.00 | 73 | 1009.0 |
| 20260504044903 | 15 | 139 | 0.0 | 0.0 | 0.00 | 0.00 | 0.00 | 73 | 1008.9 |
| 20260504044403 | 15 | 138 | 0.0 | 0.0 | 0.00 | 0.00 | 0.00 | 73 | 1008.9 |
| 20260504043403 | 15 | 139 | 0.0 | 0.0 | 0.00 | 0.00 | 0.00 | 72 | 1008.9 |
| 20260504042903 | 16 | 139 | 0.0 | 0.0 | 0.00 | 0.00 | 0.00 | 72 | 1008.8 |
| 20260504042402 | 16 | 138 | 0.0 | 0.0 | 0.00 | 0.00 | 0.00 | 71 | 1008.8 |
| 20260504041903 | 16 | 139 | 0.0 | 0.0 | 0.00 | 0.00 | 0.00 | 71 | 1008.8 |
| 20260504041403 | 16 | 139 | 0.0 | 0.0 | 0.00 | 0.00 | 0.00 | 69 | 1008.8 |
| 20260504040403 | 17 | 139 | 0.0 | 0.0 | 0.00 | 0.00 | 0.00 | 68 | 1008.8 |
| 20260504035903 | 17 | 139 | 0.0 | 0.0 | 0.00 | 0.00 | 0.00 | 68 | 1008.7 |
| 20260504034904 | 17 | 139 | 0.0 | 0.0 | 0.00 | 0.00 | 0.00 | 67 | 1008.6 |
| 20260504034403 | 18 | 139 | 0.0 | 0.0 | 0.00 | 0.00 | 0.00 | 67 | 1008.5 |
| 20260504033903 | 18 | 139 | 0.0 | 0.0 | 0.00 | 0.00 | 0.00 | 64 | 1008.5 |
| 20260504033403 | 18 | 139 | 0.0 | 0.0 | 0.00 | 0.00 | 0.00 | 61 | 1008.4 |
| 20260504032903 | 19 | 138 | 0.0 | 0.0 | 0.00 | 0.00 | 0.00 | 61 | 1008.4 |
| 20260504031903 | 20 | 138 | 0.0 | 0.0 | 0.00 | 0.00 | 0.00 | 57 | 1008.5 |
| 20260504031403 | 20 | 138 | 0.0 | 0.0 | 0.00 | 0.00 | 0.00 | 55 | 1008.5 |
| 20260504030902 | 20 | 138 | 0.0 | 0.0 | 0.00 | 0.00 | 0.00 | 57 | 1008.4 |
| 20260504030403 | 20 | 138 | 0.0 | 0.0 | 0.00 | 0.00 | 0.00 | 60 | 1008.5 |
| 20260504025903 | 21 | 139 | 0.0 | 0.0 | 0.00 | 0.00 | 0.00 | 60 | 1008.5 |
| 20260504025404 | 21 | 139 | 0.0 | 0.0 | 0.00 | 0.00 | 0.00 | 59 | 1008.5 |
| 20260504024903 | 21 | 139 | 0.0 | 0.0 | 0.00 | 0.00 | 0.00 | 59 | 1008.5 |
| 20260504024403 | 21 | 139 | 0.0 | 0.0 | 0.00 | 0.00 | 0.00 | 59 | 1008.5 |
| 20260504023903 | 22 | 139 | 0.0 | 0.0 | 0.00 | 0.00 | 0.00 | 55 | 1008.4 |